Stündliche Wetter Abrickaya Sloboda

Heute, 17 Juni, Donnerstag

Zeit Temperatur Niederschläge Wind Luftdruck Luftfeuchtigkeit
00:00 +12°C° 0 mm 2 m/S 740 mmHg 77%
01:00 +12°C° 0 mm 2 m/S 740 mmHg 78%
02:00 +12°C° 0 mm 2 m/S 740 mmHg 78%
03:00 +12°C° 0 mm 2 m/S 740 mmHg 78%
04:00 +12°C° 0 mm 2 m/S 740 mmHg 78%
05:00 +12°C° 0 mm 2 m/S 741 mmHg 78%
06:00 +14°C° 0 mm 2 m/S 741 mmHg 73%
07:00 +16°C° 0 mm 2 m/S 741 mmHg 69%
08:00 +18°C° 0 mm 2 m/S 742 mmHg 64%
09:00 +19°C° 0 mm 2 m/S 742 mmHg 60%
10:00 +21°C° 0 mm 2 m/S 742 mmHg 56%
11:00 +23°C° 0 mm 2 m/S 743 mmHg 52%
12:00 +24°C° 0 mm 2 m/S 742 mmHg 51%
13:00 +24°C° 0 mm 2 m/S 742 mmHg 49%
14:00 +25°C° 0 mm 2 m/S 742 mmHg 48%
15:00 +25°C° 0 mm 2 m/S 742 mmHg 49%
16:00 +25°C° 0 mm 2 m/S 742 mmHg 51%
17:00 +25°C° 0 mm 1 m/S 742 mmHg 52%
18:00 +23°C° 0 mm 2 m/S 742 mmHg 60%
19:00 +21°C° 0 mm 2 m/S 742 mmHg 68%
20:00 +19°C° 0 mm 2 m/S 742 mmHg 75%
21:00 +18°C° 0 mm 2 m/S 742 mmHg 78%
22:00 +17°C° 0 mm 2 m/S 742 mmHg 81%
23:00 +16°C° 0 mm 2 m/S 743 mmHg 85%

Morgen, 18 Juni, Freitag

Zeit Temperatur Niederschläge Wind Luftdruck Luftfeuchtigkeit
00:00 +15°C° 0 mm 2 m/S 743 mmHg 85%
01:00 +15°C° 0 mm 2 m/S 743 mmHg 85%
02:00 +14°C° 0 mm 2 m/S 743 mmHg 85%
03:00 +14°C° 0 mm 2 m/S 743 mmHg 85%
04:00 +14°C° 0 mm 2 m/S 743 mmHg 85%
05:00 +14°C° 0 mm 2 m/S 743 mmHg 86%
06:00 +16°C° 0 mm 2 m/S 743 mmHg 80%
07:00 +18°C° 0 mm 2 m/S 743 mmHg 74%
08:00 +20°C° 0 mm 3 m/S 743 mmHg 68%
09:00 +21°C° 0 mm 3 m/S 743 mmHg 64%
10:00 +22°C° 0 mm 3 m/S 743 mmHg 60%
11:00 +24°C° 0 mm 3 m/S 743 mmHg 56%
12:00 +25°C° 0 mm 3 m/S 743 mmHg 54%
13:00 +25°C° 0 mm 3 m/S 743 mmHg 52%
14:00 +26°C° 0 mm 3 m/S 743 mmHg 50%
15:00 +26°C° 0 mm 3 m/S 742 mmHg 52%
16:00 +26°C° 0 mm 3 m/S 742 mmHg 54%
17:00 +25°C° 0 mm 3 m/S 742 mmHg 56%
18:00 +24°C° 0 mm 2 m/S 742 mmHg 62%
19:00 +21°C° 0 mm 2 m/S 742 mmHg 69%
20:00 +20°C° 0 mm 2 m/S 742 mmHg 75%
21:00 +18°C° 0 mm 2 m/S 742 mmHg 78%
22:00 +17°C° 0 mm 2 m/S 742 mmHg 81%
23:00 +16°C° 0 mm 2 m/S 742 mmHg 84%

übermorgen, 19 Juni, Samstag

Zeit Temperatur Niederschläge Wind Luftdruck Luftfeuchtigkeit
00:00 +16°C° 0 mm 2 m/S 742 mmHg 86%
01:00 +15°C° 0 mm 2 m/S 742 mmHg 89%
02:00 +15°C° 0 mm 2 m/S 742 mmHg 91%
03:00 +15°C° 0 mm 2 m/S 742 mmHg 91%
04:00 +15°C° 0 mm 2 m/S 742 mmHg 91%
05:00 +15°C° 0 mm 2 m/S 742 mmHg 91%
06:00 +17°C° 0 mm 2 m/S 742 mmHg 86%
07:00 +19°C° 0 mm 3 m/S 742 mmHg 81%
08:00 +21°C° 0 mm 3 m/S 742 mmHg 76%
09:00 +22°C° 0 mm 3 m/S 742 mmHg 71%
10:00 +24°C° 0 mm 3 m/S 742 mmHg 67%
11:00 +25°C° 0 mm 3 m/S 742 mmHg 62%
12:00 +26°C° 0 mm 3 m/S 742 mmHg 59%
13:00 +26°C° 0 mm 3 m/S 741 mmHg 56%
14:00 +27°C° 0 mm 3 m/S 741 mmHg 54%
15:00 +27°C° 0 mm 3 m/S 741 mmHg 56%
16:00 +26°C° 0 mm 3 m/S 741 mmHg 58%
17:00 +26°C° 0 mm 3 m/S 740 mmHg 59%
18:00 +25°C° 0 mm 3 m/S 740 mmHg 66%
19:00 +22°C° 0 mm 3 m/S 740 mmHg 73%
20:00 +21°C° 0 mm 3 m/S 740 mmHg 79%
21:00 +20°C° 0 mm 3 m/S 740 mmHg 83%
22:00 +18°C° 0 mm 3 m/S 740 mmHg 86%
23:00 +17°C° 0 mm 3 m/S 740 mmHg 89%

20 Juni, Sonntag

Zeit Temperatur Niederschläge Wind Luftdruck Luftfeuchtigkeit
00:00 +17°C° 0 mm 2 m/S 740 mmHg 90%
01:00 +17°C° 0 mm 2 m/S 740 mmHg 91%
02:00 +16°C° 0 mm 2 m/S 740 mmHg 93%
03:00 +17°C° 0 mm 2 m/S 740 mmHg 93%
04:00 +17°C° 0 mm 2 m/S 740 mmHg 92%
05:00 +17°C° 0 mm 2 m/S 740 mmHg 92%
06:00 +19°C° 0 mm 2 m/S 740 mmHg 87%
07:00 +21°C° 0 mm 3 m/S 740 mmHg 81%
08:00 +22°C° 0 mm 3 m/S 740 mmHg 76%
09:00 +22°C° 0.1 mm 3 m/S 740 mmHg 75%
10:00 +24°C° 0.1 mm 3 m/S 740 mmHg 75%
11:00 +23°C° 0.1 mm 4 m/S 740 mmHg 74%
12:00 +23°C° 0 mm 4 m/S 740 mmHg 71%
13:00 +25°C° 0 mm 3 m/S 739 mmHg 68%
14:00 +26°C° 0 mm 3 m/S 739 mmHg 65%
15:00 +26°C° 0.1 mm 3 m/S 739 mmHg 65%
16:00 +26°C° 0.1 mm 2 m/S 739 mmHg 64%
17:00 +27°C° 0.1 mm 2 m/S 738 mmHg 64%
18:00 +25°C° 0.4 mm 2 m/S 738 mmHg 70%
19:00 +24°C° 0.4 mm 1 m/S 738 mmHg 76%
20:00 +23°C° 0.4 mm 1 m/S 738 mmHg 81%
21:00 +21°C° 0 mm 2 m/S 738 mmHg 85%
22:00 +20°C° 0 mm 2 m/S 738 mmHg 88%
23:00 +19°C° 0 mm 2 m/S 738 mmHg 91%

21 Juni, Montag

Zeit Temperatur Niederschläge Wind Luftdruck Luftfeuchtigkeit
00:00 +19°C° 0 mm 2 m/S 738 mmHg 92%
01:00 +18°C° 0 mm 2 m/S 738 mmHg 93%
02:00 +18°C° 0 mm 2 m/S 738 mmHg 94%
03:00 +18°C° 0 mm 2 m/S 738 mmHg 93%
04:00 +18°C° 0 mm 2 m/S 738 mmHg 93%
05:00 +18°C° 0 mm 2 m/S 738 mmHg 92%
06:00 +19°C° 0 mm 2 m/S 738 mmHg 88%
07:00 +21°C° 0 mm 3 m/S 738 mmHg 83%
08:00 +22°C° 0 mm 4 m/S 738 mmHg 78%
09:00 +25°C° 0 mm 4 m/S 738 mmHg 71%
10:00 +26°C° 0 mm 4 m/S 738 mmHg 65%
11:00 +27°C° 0 mm 4 m/S 738 mmHg 58%
12:00 +28°C° 0 mm 4 m/S 738 mmHg 55%
13:00 +28°C° 0 mm 4 m/S 738 mmHg 53%
14:00 +29°C° 0 mm 4 m/S 737 mmHg 51%
15:00 +29°C° 0 mm 4 m/S 737 mmHg 55%
16:00 +28°C° 0 mm 4 m/S 737 mmHg 59%
17:00 +28°C° 0 mm 4 m/S 737 mmHg 62%
18:00 +26°C° 0 mm 4 m/S 737 mmHg 69%
19:00 +25°C° 0 mm 3 m/S 737 mmHg 75%
20:00 +22°C° 0 mm 3 m/S 737 mmHg 81%
21:00 +21°C° 0 mm 3 m/S 737 mmHg 84%
22:00 +20°C° 0 mm 3 m/S 737 mmHg 88%
23:00 +19°C° 0 mm 3 m/S 736 mmHg 92%

22 Juni, Dienstag

Zeit Temperatur Niederschläge Wind Luftdruck Luftfeuchtigkeit
00:00 +19°C° 0 mm 3 m/S 736 mmHg 93%
01:00 +19°C° 0 mm 3 m/S 736 mmHg 94%
02:00 +19°C° 0 mm 3 m/S 736 mmHg 96%
03:00 +19°C° 0 mm 3 m/S 736 mmHg 96%
04:00 +19°C° 0 mm 3 m/S 737 mmHg 95%
05:00 +19°C° 0 mm 3 m/S 737 mmHg 95%
06:00 +21°C° 0 mm 4 m/S 737 mmHg 89%
07:00 +22°C° 0 mm 5 m/S 737 mmHg 83%
08:00 +23°C° 0 mm 5 m/S 737 mmHg 77%
09:00 +26°C° 0 mm 6 m/S 737 mmHg 71%
10:00 +27°C° 0 mm 6 m/S 737 mmHg 65%
11:00 +28°C° 0 mm 6 m/S 737 mmHg 60%
12:00 +29°C° 0 mm 6 m/S 737 mmHg 57%
13:00 +30°C° 0 mm 6 m/S 737 mmHg 54%
14:00 +32°C° 0 mm 5 m/S 737 mmHg 51%
15:00 +30°C° 0 mm 5 m/S 737 mmHg 54%
16:00 +30°C° 0 mm 5 m/S 737 mmHg 57%
17:00 +29°C° 0 mm 5 m/S 737 mmHg 60%
18:00 +28°C° 0 mm 5 m/S 737 mmHg 66%
19:00 +26°C° 0 mm 5 m/S 737 mmHg 71%
20:00 +25°C° 0 mm 4 m/S 737 mmHg 77%
21:00 +23°C° 0 mm 4 m/S 737 mmHg 80%
22:00 +22°C° 0 mm 4 m/S 737 mmHg 82%
23:00 +21°C° 0 mm 4 m/S 737 mmHg 85%
Mehr zeigen

Wir brauchen deine Erlaubnis

Meteoprog und unser Service Anbieter werden persönliche Daten aufbewahren, so wie Cookies, Geräte Bezeichnung oder ähnliche Technologien von deinem Gerät und Prozess, so wie Persönliche Daten Inhalte und Werbungen, genauso wie social Media und den Verkehr zu analysieren.

  • Aufbewahrung und/oder Zugang zu deiner Geräte Informationen.

    Cookies, Geräte Bezeichnung oder andere Informationen, können aufbewahrt oder Zugang zu deinem Gerät erhalten, für den Grund, der oben angegeben wird.

  • Personalisierte Werbung und Inhalte, Messungen, Einblick in das Publikum und Produkt Entwicklung.

    Werbungen und Inhalte können personalisiert werden, basierend auf ein Profil. Mehr Daten können besser personalisierte Werbungen und Inhalte hinzufügen. Werbung und Inhalte können gezeigt und gemessen werden. Einblicke über das Publikum, welche die Werbung gesehen haben und den Inhalt, können abgeleitet werden. So wie Daten können genutzt werden, um es zu verbessern oder die Benutzer Erfahrung zu verbessern das System und die Software.

Wenn du “Ich stimme zu” klickst, erlaubst du uns, die Cookies zu benutzen die Geräte Bezeichnung, den Web oder ähnliche Technologien zu benutzen. Deine Settings, können in deinem Gerät bei deinem Browser geändert werden.

Für den bestimmten Zweck, berechtigten Interessen beruhen darauf, mehr als auf den Inhalt. Du kannst mehr darüber in unseren Privaten und Cookie Politik lesen.